[keps] orb07271.2l.amsat

Ray Hoad r.hoad at att.net
Fri Sep 28 04:36:05 PDT 2007


SB KEPS @ AMSAT  $ORB07271.N
2Line Orbital Elements 07271.AMSAT

HR AMSAT ORBITAL ELEMENTS FOR AMATEUR SATELLITES IN NASA FORMAT
FROM WA5QGD FORT WORTH,TX September 28, 2007
Send Subscribe/unsubscribe to KEPS at 
http://www.amsat.org/mailman/listinfo/keps
BID: ORB07271.N

DECODE 2-LINE ELSETS WITH THE FOLLOWING KEY:
1 AAAAAU 00  0  0 BBBBB.BBBBBBBB  .CCCCCCCC  00000-0  00000-0 0  DDDZ
2 AAAAA EEE.EEEE FFF.FFFF GGGGGGG HHH.HHHH III.IIII JJ.JJJJJJJJKKKKKZ
KEY: A-CATALOGNUM B-EPOCHTIME C-DECAY D-ELSETNUM E-INCLINATION F-RAAN
G-ECCENTRICITY H-ARGPERIGEE I-MNANOM J-MNMOTION K-ORBITNUM Z-CHECKSUM

TO ALL RADIO AMATEURS BT

AO-07
1 07530U 74089B   07271.17170329 -.00000028  00000-0  10000-3 0  9872
2 07530 101.5057 306.1161 0012172 055.5188 304.7029 12.53572559504029
AO-10
1 14129U 83058B   07268.11134278  .00000216  00000-0  10000-3 0 04304
2 14129 026.1220 254.6303 6061387 059.0307 346.8451 02.05867591182623
UO-11
1 14781U 84021B   07270.51182965  .00000401  00000-0  60795-4 0  4822
2 14781 098.1869 295.1634 0008819 195.9385 164.1577 14.79582500264868
RS-15
1 23439U 94085A   07269.88964646 -.00000039  00000-0  10000-3 0 00956
2 23439 064.8148 202.4452 0155900 172.4799 187.8510 11.27552719525161
FO-29
1 24278U 96046B   07269.88901109 -.00000032  00000-0  26758-5 0 06321
2 24278 098.5606 215.9273 0350649 179.6710 180.4717 13.52931699548650
SO-33
1 25509U 98061B   07269.62016711 -.00000080  00000-0 -30568-4 0 00305
2 25509 031.4329 012.2525 0355787 234.1461 122.5625 14.28175512465765
AO-40
1 26609U 00072B   07270.25662614 -.00000023  00000-0  10000-3 0  9417
2 26609 006.5986 118.6482 7950701 007.8761 359.8571 01.25585198 31722
VO-52
1 28650U 05017B   07270.71376381  .00000279  00000-0  42270-4 0  7384
2 28650 097.8244 339.0910 0026045 280.2326 079.5934 14.81361529129595
PO-63
1 29712U 07001D   07271.16042932  .00000519  00000-0  75695-4 0  7701
2 29712 097.9129 328.8480 0014947 151.1581 209.0470 14.79836422 38560
AO-16
1 20439U 90005D   07271.16973215  .00000008  00000-0  18174-4 0  1426
2 20439 098.2050 260.0946 0009971 237.3368 122.6865 14.31770970923282
LO-19
1 20442U 90005G   07271.05120993 -.00000057  00000-0 -63231-5 0   672
2 20442 098.1847 269.1766 0010986 236.2832 123.7321 14.32010618923412
AO-27
1 22825U 93061C   07269.43068558  .00000031  00000-0  28448-4 0 07904
2 22825 098.3434 234.9578 0008011 329.5217 030.5487 14.29218427729958
IO-26
1 22826U 93061D   07269.46056494  .00000012  00000-0  20965-4 0 04894
2 22826 098.3369 236.0151 0008671 326.5117 033.5511 14.29465079730044
PO-28
1 22829U 93061G   07270.48636181 -.00000010  00000-0  12142-4 0  7630
2 22829 098.3249 238.1483 0008939 293.4466 066.5764 14.30166824730438
GO-32
1 25397U 98043D   07269.75487627 -.00000205  00000-0 -72514-4 0 04133
2 25397 098.4053 312.4718 0000563 344.0260 016.0906 14.23130004478601
MO-46
1 26548U 00057D   07270.33599110 -.00000002  00000-0  17374-4 0  9061
2 26548 064.5556 226.6436 0002913 185.9496 174.1560 14.83176162378689
NO-44
1 26931U 01043C   07269.39882289 -.00000049  00000-0  13310-4 0 06940
2 26931 067.0496 246.7689 0006615 251.1985 108.8399 14.29495847312564
SO-50
1 27607U 02058C   07269.67302930  .00000017  00000-0  24795-4 0 04186
2 27607 064.5585 136.8984 0066264 334.3137 025.4657 14.71288339256057
CO-55
1 27844U 03031E   07269.67337479  .00000030  00000-0  34335-4 0 01315
2 27844 098.7205 276.5964 0010100 154.0682 206.0995 14.20532867219882
CO-57
1 27848U 03031J   07269.56608946  .00000022  00000-0  30766-4 0   883
2 27848 098.7204 275.6518 0009947 158.1202 202.0420 14.20349227219841
AO-51
1 28375U 04025K   07271.15642653  .00000006  00000-0  14843-4 0  9210
2 28375 098.1039 305.1247 0082935 230.6178 128.7644 14.40580767170533
CO-56
1 28941U 06005C   07269.96428576  .00010385  25582-5  10636-3 0 05883
2 28941 098.1185 342.6222 0211439 271.4852 086.2172 15.43433177089111
HO-59
1 29484U 06041F   07270.88290897  .00022991  28220-5  14115-3 0  7192
2 29484 098.2701 336.7941 0180842 255.1689 102.9439 15.58464677 57034
NO-61
1 29664U 06055F   07271.22756046  .00048955  12382-4  10134-3 0  5104
2 29664 051.6284 266.4352 0011605 038.4025 321.7808 15.99558362 44604
CP4
1 31122U 07012F   07271.13468168  .00000551  00000-0  13192-3 0  1467
2 31122 098.0762 341.0407 0086586 066.5848 294.4389 14.55035810 23828
CP3
1 31128U 07012M   07270.66482719 -.00000047  00000-0  00000 0 0  1391
2 31128 098.0745 339.7723 0103877 069.6398 291.5922 14.51867387 23691
LIBERT
1 31129U 07012N   07271.13737613  .00000339  00000-0  89029-4 0  3962
2 31129 098.0747 340.2415 0103890 067.9659 293.2497 14.51960373 23746
NOAA-10
1 16969U 86073A   07269.59840291  .00000013  00000-0  23760-4 0 08273
2 16969 098.7445 286.8337 0011557 230.7215 129.2962 14.27334688093690
NOAA-11
1 19531U 88089A   07269.82472896 -.00000219  00000-0 -90473-4 0 08565
2 19531 098.8108 357.7149 0012395 100.1320 260.1255 14.14850700980523
NOAA-12
1 21263U 91032A   07269.72695294  .00000130  00000-0  73763-4 0 03580
2 21263 098.7594 266.8297 0012620 169.3220 190.8210 14.25495419850718
MET-3/5
1 21655U 91056A   07269.97156601  .00000051  00000-0  10000-3 0 03375
2 21655 082.5532 291.0363 0012770 319.6056 040.4117 13.17011583774800
MET-2/21
1 22782U 93055A   07270.69473388  .00000080  00000-0  58904-4 0  9445
2 22782 082.5501 320.6038 0021296 311.9746 047.9611 13.83618571710691
OKEAN-4
1 23317U 94066A   07269.75897856  .00000210  00000-0  23171-4 0 03827
2 23317 082.5407 201.7692 0020507 279.4985 080.3910 14.82535802699103
NOAA-14
1 23455U 94089A   07269.78242235 -.00000178  00000-0 -70206-4 0 08330
2 23455 098.9806 336.4623 0009679 167.9378 192.2024 14.13725431656996
SICH-1
1 23657U 95046A   07269.73439050  .00000174  00000-0  19194-4 0 01826
2 23657 082.5320 342.7531 0022175 269.6953 090.1725 14.81514224651061
NOAA-15
1 25338U 98030A   07269.79778294  .00000092  00000-0  57811-4 0 01773
2 25338 098.5377 263.6527 0011692 092.9020 267.3473 14.24666240487156
RESURS
1 25394U 98043A   07270.71449735 -.00000035  00000-0  27337-5 0  7470
2 25394 098.4291 321.1314 0000531 267.9899 092.1220 14.24145519478946
FENGYUN1
1 25730U 99025A   07269.92880438  .00000554  00000-0  35242-3 0 02624
2 25730 098.6972 249.9791 0017580 195.7525 164.3100 14.07612791431782
OKEAN-0
1 25860U 99039A   07269.55137262  .00000048  00000-0  14678-4 0 01697
2 25860 097.7368 267.0926 0001909 066.4777 293.6628 14.73474861440426
NOAA-16
1 26536U 00055A   07269.91369205  .00000170  00000-0  11728-3 0 06156
2 26536 099.1278 248.6818 0009765 245.7093 114.3043 14.12453965361460
NOAA-17
1 27453U 02032A   07269.77718515  .00000137  00000-0  78621-4 0 06168
2 27453 098.5722 336.5986 0012398 154.8281 205.3485 14.23911687273177
NOAA-18
1 28654U 05018A   07269.79204263 -.00000066  00000-0 -12319-4 0 01396
2 28654 098.8340 209.3968 0014295 345.2954 014.7791 14.11097037121184
HUBBLE
1 20580U 90037B   07269.39072073  .00000375  00000-0  16238-4 0 09741
2 20580 028.4683 250.1659 0003818 098.1454 261.9570 15.00282352755170
UARS
1 21701U 91063B   07269.94984639  .00006798  00000-0  11156-3 0 01928
2 21701 056.9738 232.0624 0093487 032.5784 328.0993 15.48984106881513
PO-34
1 25520U 98064B   07270.93448523  .00000405  00000-0  10227-4 0  8326
2 25520 028.4590 141.0488 0005155 294.4739 065.5321 15.17053404493147
ISS
1 25544U 98067A   07271.35045440  .00009201  00000-0  63990-4 0   637
2 25544 051.6342 291.6396 0002694 047.6524 075.7835 15.75257108507051
OO-38
1 26063U 00004C   07269.56102266 -.00000022  00000-0  12758-4 0 00222
2 26063 100.2281 290.9162 0036540 234.3778 125.3989 14.35815530401595
UWE-1
1 28892U 05043C   07270.70289209  .00000111  00000-0  33031-4 0  8596
2 28892 098.1175 165.2415 0017958 149.2999 210.9271 14.59543143102160
CO-58
1 28895U 05043F   07270.95260744  .00000125  00000-0  35811-4 0  8367
2 28895 098.1192 165.7372 0018467 148.9171 211.3129 14.59586906102085
NCUBE2
1 28897U 05043H   07271.15299963  .00000106  00000-0  31837-4 0  3624
2 28897 098.1179 165.8821 0017827 149.8467 210.3770 14.59751413 94391
FCAL
1 29667U 06055J   07271.09105317  .00015606  11249-4  56031-4 0  3586
2 29667 051.6312 273.2222 0013708 033.4864 326.6899 15.91852612 44378
FALCON
1 30776U 07006E   07269.50676188  .00000250  00000-0  21406-4 0 01605
2 30776 035.4349 318.4264 0001537 290.4975 069.5576 15.02769259030303
MAST
1 31126U 07012K   07271.18450270  .00000344  00000-0  88342-4 0  1449
2 31126 098.0752 340.6580 0095953 066.7667 294.3543 14.53366287 23810
CAPE1
1 31130U 07012P   07270.80057240  .00000019  00000-0  15145-4 0  1262
2 31130 098.0756 339.9045 0104056 069.2853 291.9445 14.51886757 23503
/EX






More information about the Keps mailing list